SWR5ET KIAD-LSZH

Flight info

Callsign SWR5ET
Flight time 7h 57m
Altitude 37000
Route JCOBY4 SWANN DCT BROSS Q419 RBV Q22 FOXWD DCT WITCH DCT ALLEX N431B ELSIR/M082F380 NATQ SOVED/N0471F390 DCT LUTOV DCT MAKUX DCT SOSIM L15 FINMA DCT CHT DCT ITVIP DCT KONAN UL607 KOK DCT CIV DCT SUTAL DCT GTQ DCT BAMEV DCT BLM
Aircraft A343/H-SDE2E3FGHIJ4J5M1RWXY/LB1D1

Departure

Time 2026-04-26 00:06
Airport Washington Dulles International Airport (KIAD)

Arrival

Time 2026-04-26 08:03
Airport Zürich Airport (LSZH)
Time Latitude Longitude Altitude Speed Heading
2026-04-25 23:27 38.94927 -77.44835 304 ft 0 kts 200°
2026-04-25 23:47 38.94928 -77.44834 304 ft 2 kts 200°
2026-04-25 23:48 38.94953 -77.44823 306 ft 4 kts 200°
2026-04-25 23:48 38.94977 -77.44812 305 ft 2 kts 200°
2026-04-25 23:48 38.94998 -77.44801 306 ft 4 kts 210°
2026-04-25 23:48 38.95015 -77.44780 308 ft 4 kts 258°
2026-04-25 23:49 38.95016 -77.44750 306 ft 4 kts 271°
2026-04-25 23:49 38.95016 -77.44733 306 ft 0 kts 271°
2026-04-25 23:52 38.95016 -77.44747 306 ft 5 kts 271°
2026-04-25 23:53 38.95017 -77.44801 308 ft 7 kts 271°
2026-04-25 23:53 38.95018 -77.44862 304 ft 7 kts 271°
2026-04-25 23:53 38.95019 -77.44925 304 ft 7 kts 271°
2026-04-25 23:53 38.95020 -77.44998 304 ft 10 kts 271°
2026-04-25 23:54 38.95021 -77.45094 304 ft 11 kts 270°
2026-04-25 23:54 38.95020 -77.45194 304 ft 11 kts 270°
2026-04-25 23:54 38.95021 -77.45266 304 ft 3 kts 270°
2026-04-25 23:54 38.95021 -77.45291 304 ft 3 kts 270°
2026-04-25 23:55 38.95021 -77.45320 304 ft 3 kts 271°
2026-04-25 23:55 38.95021 -77.45341 304 ft 0 kts 271°
2026-04-25 23:57 38.95021 -77.45345 304 ft 1 kts 271°
2026-04-25 23:57 38.95022 -77.45374 304 ft 4 kts 271°
2026-04-25 23:57 38.95022 -77.45411 299 ft 4 kts 271°
2026-04-25 23:58 38.95023 -77.45451 304 ft 5 kts 270°
2026-04-25 23:58 38.95023 -77.45492 304 ft 4 kts 270°
2026-04-25 23:58 38.95023 -77.45528 304 ft 4 kts 270°
2026-04-25 23:58 38.95019 -77.45565 305 ft 4 kts 250°
2026-04-25 23:59 38.95002 -77.45589 309 ft 4 kts 222°
2026-04-25 23:59 38.94953 -77.45608 308 ft 11 kts 179°
2026-04-25 23:59 38.94870 -77.45605 306 ft 15 kts 179°
2026-04-25 23:59 38.94754 -77.45607 306 ft 17 kts 180°
2026-04-26 00:00 38.94634 -77.45609 305 ft 17 kts 181°
2026-04-26 00:00 38.94517 -77.45612 306 ft 17 kts 181°
2026-04-26 00:00 38.94402 -77.45613 307 ft 16 kts 180°
2026-04-26 00:00 38.94292 -77.45614 307 ft 16 kts 181°
2026-04-26 00:01 38.94184 -77.45617 306 ft 15 kts 180°
2026-04-26 00:01 38.94078 -77.45615 308 ft 15 kts 180°
2026-04-26 00:01 38.93974 -77.45617 307 ft 15 kts 181°
2026-04-26 00:01 38.93872 -77.45618 307 ft 15 kts 180°
2026-04-26 00:02 38.93770 -77.45620 306 ft 15 kts 182°
2026-04-26 00:02 38.93682 -77.45581 308 ft 13 kts 133°
2026-04-26 00:02 38.93623 -77.45505 307 ft 10 kts 152°
2026-04-26 00:02 38.93555 -77.45512 308 ft 10 kts 199°
2026-04-26 00:03 38.93499 -77.45538 305 ft 0 kts 200°
2026-04-26 00:03 38.93496 -77.45539 305 ft 1 kts 200°
2026-04-26 00:03 38.93478 -77.45548 306 ft 5 kts 200°
2026-04-26 00:03 38.93438 -77.45567 306 ft 8 kts 200°
2026-04-26 00:04 38.93383 -77.45602 307 ft 8 kts 227°
2026-04-26 00:04 38.93383 -77.45666 306 ft 7 kts 286°
2026-04-26 00:04 38.93406 -77.45753 307 ft 19 kts 289°
2026-04-26 00:04 38.93517 -77.46130 306 ft 72 kts 291°
2026-04-26 00:05 38.93753 -77.46921 308 ft 117 kts 290°
2026-04-26 00:05 38.94086 -77.48062 308 ft 154 kts 291°
2026-04-26 00:05 38.94473 -77.49411 618 ft 162 kts 291°
2026-04-26 00:05 38.94924 -77.50773 847 ft 177 kts 305°
2026-04-26 00:06 38.95930 -77.51813 1091 ft 191 kts 335°
2026-04-26 00:06 38.97132 -77.52507 1637 ft 192 kts 340°
2026-04-26 00:06 38.98424 -77.53180 1856 ft 216 kts 339°
2026-04-26 00:06 38.99931 -77.53965 2064 ft 247 kts 339°
2026-04-26 00:07 39.01587 -77.54808 2554 ft 263 kts 339°
2026-04-26 00:07 39.03325 -77.55648 3254 ft 269 kts 339°
2026-04-26 00:07 39.05090 -77.56465 4111 ft 270 kts 339°
2026-04-26 00:07 39.06871 -77.57243 4716 ft 270 kts 339°
2026-04-26 00:08 39.08662 -77.57985 4977 ft 270 kts 339°
2026-04-26 00:08 39.10426 -77.58703 5024 ft 269 kts 339°
2026-04-26 00:08 39.12217 -77.59429 5027 ft 270 kts 340°
2026-04-26 00:08 39.13999 -77.60154 5029 ft 267 kts 340°
2026-04-26 00:09 39.15775 -77.60806 5315 ft 266 kts 347°
2026-04-26 00:09 39.17647 -77.60876 5922 ft 274 kts
2026-04-26 00:09 39.19435 -77.60001 6724 ft 281 kts 32°
2026-04-26 00:09 39.20746 -77.58110 7443 ft 290 kts 63°
2026-04-26 00:10 39.21145 -77.55562 8083 ft 296 kts 95°
2026-04-26 00:10 39.20603 -77.52993 8779 ft 299 kts 118°
2026-04-26 00:10 39.19375 -77.50885 9444 ft 298 kts 141°
2026-04-26 00:10 39.17678 -77.49365 10114 ft 298 kts 150°
2026-04-26 00:11 39.16153 -77.47570 10702 ft 304 kts 126°
2026-04-26 00:11 39.15276 -77.45083 11352 ft 307 kts 104°
2026-04-26 00:11 39.14830 -77.42380 11997 ft 309 kts 100°
2026-04-26 00:11 39.14693 -77.39592 12423 ft 319 kts 84°
2026-04-26 00:12 39.14890 -77.36685 12675 ft 335 kts 85°
2026-04-26 00:12 39.15025 -77.33616 12906 ft 350 kts 86°
2026-04-26 00:12 39.15117 -77.30414 13142 ft 366 kts 87°
2026-04-26 00:12 39.15200 -77.27069 13388 ft 380 kts 87°
2026-04-26 00:13 39.15289 -77.23639 13618 ft 395 kts 87°
2026-04-26 00:13 39.15392 -77.20046 13845 ft 409 kts 86°
2026-04-26 00:13 39.15507 -77.16341 14213 ft 417 kts 86°
2026-04-26 00:13 39.15629 -77.12589 14715 ft 421 kts 86°
2026-04-26 00:14 39.15754 -77.08798 15237 ft 425 kts 86°
2026-04-26 00:14 39.15880 -77.04980 15766 ft 428 kts 87°
2026-04-26 00:14 39.16007 -77.01125 16288 ft 432 kts 87°
2026-04-26 00:14 39.16133 -76.97244 16779 ft 436 kts 87°
2026-04-26 00:15 39.16258 -76.93328 17021 ft 437 kts 87°
2026-04-26 00:15 39.16381 -76.89450 17221 ft 440 kts 87°
2026-04-26 00:15 39.16506 -76.85443 17731 ft 443 kts 87°
2026-04-26 00:15 39.16629 -76.81473 18340 ft 444 kts 87°
2026-04-26 00:16 39.16750 -76.77529 18787 ft 447 kts 88°
2026-04-26 00:16 39.16871 -76.73519 19189 ft 451 kts 88°
2026-04-26 00:16 39.16992 -76.69459 19630 ft 454 kts 88°
2026-04-26 00:16 39.17112 -76.65374 20055 ft 457 kts 88°
2026-04-26 00:17 39.17232 -76.61260 20498 ft 461 kts 88°
2026-04-26 00:17 39.17352 -76.57123 20916 ft 464 kts 88°
2026-04-26 00:17 39.17470 -76.52959 21338 ft 467 kts 88°
2026-04-26 00:17 39.17588 -76.48751 21759 ft 470 kts 88°
2026-04-26 00:18 39.17705 -76.44540 22271 ft 471 kts 89°
2026-04-26 00:18 39.17821 -76.40313 22690 ft 474 kts 89°
2026-04-26 00:18 39.17935 -76.36098 23062 ft 477 kts 89°
2026-04-26 00:18 39.18049 -76.31807 23439 ft 480 kts 89°
2026-04-26 00:19 39.18163 -76.27482 23771 ft 483 kts 89°
2026-04-26 00:19 39.18275 -76.23137 24069 ft 486 kts 89°
2026-04-26 00:19 39.18387 -76.18769 24356 ft 489 kts 89°
2026-04-26 00:19 39.18498 -76.14370 24648 ft 492 kts 89°
2026-04-26 00:20 39.18607 -76.09953 25010 ft 493 kts 89°
2026-04-26 00:20 39.18715 -76.05530 25329 ft 495 kts 89°
2026-04-26 00:20 39.18823 -76.01065 25521 ft 500 kts 89°
2026-04-26 00:20 39.19080 -75.96567 25716 ft 506 kts 82°
2026-04-26 00:21 39.19526 -75.93609 25906 ft 508 kts 76°
2026-04-26 00:21 39.20688 -75.89303 26183 ft 510 kts 64°
2026-04-26 00:21 39.22466 -75.85333 26448 ft 511 kts 52°
2026-04-26 00:21 39.24741 -75.81821 26711 ft 511 kts 44°
2026-04-26 00:22 39.27315 -75.78643 26958 ft 512 kts 39°
2026-04-26 00:22 39.30019 -75.75675 27228 ft 513 kts 36°
2026-04-26 00:22 39.32779 -75.72785 27487 ft 515 kts 36°
2026-04-26 00:22 39.35614 -75.69834 27727 ft 518 kts 36°
2026-04-26 00:23 39.38373 -75.66925 28010 ft 520 kts 36°
2026-04-26 00:23 39.41163 -75.63935 28282 ft 522 kts 36°
2026-04-26 00:23 39.43958 -75.60899 28516 ft 525 kts 37°
2026-04-26 00:23 39.46758 -75.57842 28733 ft 527 kts 37°
2026-04-26 00:24 39.49533 -75.54784 29033 ft 528 kts 37°
2026-04-26 00:24 39.52325 -75.51692 29385 ft 528 kts 37°
2026-04-26 00:24 39.55114 -75.48600 29703 ft 528 kts 37°
2026-04-26 00:24 39.57901 -75.45509 30025 ft 527 kts 37°
2026-04-26 00:25 39.60694 -75.42413 30308 ft 527 kts 37°
2026-04-26 00:25 39.63479 -75.39330 30581 ft 526 kts 36°
2026-04-26 00:25 39.66261 -75.36247 30863 ft 526 kts 36°
2026-04-26 00:25 39.69038 -75.33161 31170 ft 525 kts 37°
2026-04-26 00:26 39.71808 -75.30080 31435 ft 524 kts 37°
2026-04-26 00:26 39.74579 -75.26993 31709 ft 524 kts 37°
2026-04-26 00:26 39.77305 -75.23949 31977 ft 524 kts 37°
2026-04-26 00:26 39.79906 -75.20609 32243 ft 526 kts 44°
2026-04-26 00:27 39.82377 -75.17100 32499 ft 526 kts 45°
2026-04-26 00:27 39.84809 -75.13550 32769 ft 526 kts 45°
2026-04-26 00:27 39.87221 -75.09970 33035 ft 525 kts 46°
2026-04-26 00:27 39.89621 -75.06384 33272 ft 525 kts 46°
2026-04-26 00:28 39.92010 -75.02805 33528 ft 523 kts 45°
2026-04-26 00:28 39.94402 -74.99221 33829 ft 522 kts 45°
2026-04-26 00:28 39.96724 -74.95555 33958 ft 526 kts 51°
2026-04-26 00:28 39.98820 -74.91674 34403 ft 520 kts 53°
2026-04-26 00:29 40.00837 -74.87813 34914 ft 512 kts 53°
2026-04-26 00:29 40.02812 -74.83963 35224 ft 509 kts 53°
2026-04-26 00:29 40.04771 -74.80111 35444 ft 508 kts 53°
2026-04-26 00:29 40.06717 -74.76270 35616 ft 507 kts 53°
2026-04-26 00:30 40.08662 -74.72428 35805 ft 507 kts 53°
2026-04-26 00:30 40.10583 -74.68633 35963 ft 506 kts 53°
2026-04-26 00:30 40.12526 -74.64794 36113 ft 507 kts 53°
2026-04-26 00:30 40.14471 -74.60951 36258 ft 507 kts 53°
2026-04-26 00:31 40.16416 -74.57105 36399 ft 507 kts 53°
2026-04-26 00:31 40.18365 -74.53273 36558 ft 505 kts 51°
2026-04-26 00:31 40.20556 -74.49705 36687 ft 500 kts 41°
2026-04-26 00:31 40.23066 -74.46593 36832 ft 495 kts 36°
2026-04-26 00:32 40.25672 -74.43656 36977 ft 493 kts 34°
2026-04-26 00:32 40.33702 -74.35079 37059 ft 500 kts 33°
2026-04-26 00:33 40.39135 -74.29310 37084 ft 501 kts 33°
2026-04-26 00:33 40.44523 -74.23533 37092 ft 499 kts 33°
2026-04-26 00:34 40.49894 -74.17749 37099 ft 499 kts 33°
2026-04-26 00:34 40.55240 -74.11982 37098 ft 500 kts 33°
2026-04-26 00:35 40.60619 -74.06177 37102 ft 500 kts 33°
2026-04-26 00:35 40.65993 -74.00348 37118 ft 501 kts 33°
2026-04-26 00:36 40.71363 -73.94509 37100 ft 499 kts 33°
2026-04-26 00:36 40.76720 -73.88677 37082 ft 499 kts 33°
2026-04-26 00:37 40.82073 -73.82840 37087 ft 499 kts 33°
2026-04-26 00:37 40.87064 -73.76480 37102 ft 508 kts 48°
2026-04-26 00:38 40.91292 -73.68964 37102 ft 511 kts 50°
2026-04-26 00:38 40.95378 -73.61229 37103 ft 511 kts 51°
2026-04-26 00:39 40.99421 -73.53505 37101 ft 510 kts 51°
2026-04-26 00:39 41.03469 -73.45803 37105 ft 510 kts 51°
2026-04-26 00:40 41.07530 -73.38092 37122 ft 510 kts 51°
2026-04-26 00:40 41.11565 -73.30416 37126 ft 510 kts 51°
2026-04-26 00:41 41.15616 -73.22686 37128 ft 509 kts 50°
2026-04-26 00:41 41.19659 -73.14954 37128 ft 509 kts 51°
2026-04-26 00:42 41.23687 -73.07230 37135 ft 509 kts 51°
2026-04-26 00:42 41.27721 -72.99475 37137 ft 510 kts 51°
2026-04-26 00:43 41.31648 -72.91615 37138 ft 512 kts 54°
2026-04-26 00:43 41.35252 -72.83424 37135 ft 511 kts 56°
2026-04-26 00:44 41.38785 -72.75279 37136 ft 511 kts 56°
2026-04-26 00:44 41.42389 -72.67114 37143 ft 511 kts 55°
2026-04-26 00:45 41.46017 -72.58965 37145 ft 511 kts 55°
2026-04-26 00:45 41.49636 -72.50829 37128 ft 509 kts 55°
2026-04-26 00:46 41.53247 -72.42687 37126 ft 509 kts 55°
2026-04-26 00:46 41.56827 -72.34588 37128 ft 509 kts 55°
2026-04-26 00:47 41.60422 -72.26431 37130 ft 509 kts 55°
2026-04-26 00:47 41.64010 -72.18267 37144 ft 508 kts 55°
2026-04-26 00:48 41.67585 -72.10110 37140 ft 508 kts 55°
2026-04-26 00:48 41.71157 -72.01941 37135 ft 508 kts 55°
2026-04-26 00:49 41.74722 -71.93762 37137 ft 508 kts 55°
2026-04-26 00:49 41.78262 -71.85625 37132 ft 508 kts 55°
2026-04-26 00:50 41.82624 -71.78375 37132 ft 493 kts 34°
2026-04-26 00:50 41.87891 -71.72548 37128 ft 490 kts 31°
2026-04-26 00:51 41.93296 -71.66972 37129 ft 489 kts 30°
2026-04-26 00:51 41.98678 -71.61449 37129 ft 490 kts 31°
2026-04-26 00:52 42.04094 -71.55839 37133 ft 491 kts 31°
2026-04-26 00:52 42.09481 -71.50218 37131 ft 489 kts 31°
2026-04-26 00:53 42.14856 -71.44591 37133 ft 488 kts 31°
2026-04-26 00:53 42.20218 -71.38968 37129 ft 487 kts 31°
2026-04-26 00:54 42.25530 -71.33388 37124 ft 487 kts 31°
2026-04-26 00:54 42.30880 -71.27756 37118 ft 487 kts 31°
2026-04-26 00:55 42.36227 -71.22113 37131 ft 486 kts 31°
2026-04-26 00:55 42.41557 -71.16476 37129 ft 486 kts 31°
2026-04-26 00:56 42.46882 -71.10832 37133 ft 486 kts 31°
2026-04-26 00:56 42.52206 -71.05176 37128 ft 487 kts 31°
2026-04-26 00:57 42.57537 -70.99501 37128 ft 487 kts 31°
2026-04-26 00:57 42.62833 -70.93850 37137 ft 487 kts 31°
2026-04-26 00:58 42.67981 -70.87788 37135 ft 496 kts 43°
2026-04-26 00:58 42.72112 -70.80175 37129 ft 502 kts 51°
2026-04-26 00:59 42.75922 -70.72199 37125 ft 503 kts 52°
2026-04-26 00:59 42.79679 -70.64155 37125 ft 502 kts 52°
2026-04-26 01:00 42.83420 -70.56177 37124 ft 502 kts 52°
2026-04-26 01:00 42.87187 -70.48171 37126 ft 500 kts 51°
2026-04-26 01:01 42.90935 -70.40200 37150 ft 499 kts 51°
2026-04-26 01:01 42.94671 -70.32233 37137 ft 498 kts 51°
2026-04-26 01:02 42.98398 -70.24263 37140 ft 497 kts 51°
2026-04-26 01:02 43.02099 -70.16325 37145 ft 497 kts 51°
2026-04-26 01:03 43.05798 -70.08367 37138 ft 494 kts 51°
2026-04-26 01:03 43.09466 -70.00458 37140 ft 494 kts 51°
2026-04-26 01:04 43.13146 -69.92505 37144 ft 494 kts 51°
2026-04-26 01:04 43.16830 -69.84518 37149 ft 494 kts 51°
2026-04-26 01:05 43.20465 -69.76612 37140 ft 492 kts 51°
2026-04-26 01:05 43.24113 -69.68660 37138 ft 491 kts 51°
2026-04-26 01:06 43.27750 -69.60711 37135 ft 491 kts 51°
2026-04-26 01:06 43.31383 -69.52752 37129 ft 491 kts 51°
2026-04-26 01:07 43.34986 -69.44834 37130 ft 491 kts 51°
2026-04-26 01:07 43.38618 -69.36832 37129 ft 492 kts 51°
2026-04-26 01:08 43.41622 -69.30193 37136 ft 492 kts 51°
2026-04-26 01:08 43.45819 -69.20897 37157 ft 491 kts 51°
2026-04-26 01:09 43.49420 -69.12897 37131 ft 492 kts 51°
2026-04-26 01:09 43.52420 -69.06216 37128 ft 492 kts 51°
2026-04-26 01:10 43.56016 -68.98186 37130 ft 492 kts 51°
2026-04-26 01:10 43.59608 -68.90144 37156 ft 492 kts 51°
2026-04-26 01:11 43.63192 -68.82096 37116 ft 492 kts 51°
2026-04-26 01:11 43.66749 -68.74085 37138 ft 492 kts 51°
2026-04-26 01:12 43.70319 -68.66026 37126 ft 491 kts 51°
2026-04-26 01:12 43.73882 -68.57958 37138 ft 491 kts 51°
2026-04-26 01:13 43.77427 -68.49909 37124 ft 490 kts 51°
2026-04-26 01:13 43.80948 -68.41894 37122 ft 490 kts 51°
2026-04-26 01:14 43.84489 -68.33812 37119 ft 490 kts 51°
2026-04-26 01:14 43.88000 -68.25774 37120 ft 490 kts 51°
2026-04-26 01:15 43.91541 -68.17643 37118 ft 489 kts 51°
2026-04-26 01:15 43.95033 -68.09605 37125 ft 489 kts 51°
2026-04-26 01:16 43.98532 -68.01523 37111 ft 487 kts 51°
2026-04-26 01:16 44.02016 -67.93457 37103 ft 486 kts 51°
2026-04-26 01:17 44.05488 -67.85397 37097 ft 485 kts 51°
2026-04-26 01:17 44.08951 -67.77337 37098 ft 485 kts 51°
2026-04-26 01:18 44.12384 -67.69324 37111 ft 485 kts 51°
2026-04-26 01:18 44.15828 -67.61259 37096 ft 484 kts 51°
2026-04-26 01:19 44.19259 -67.53199 37091 ft 482 kts 51°
2026-04-26 01:19 44.22676 -67.45156 37091 ft 482 kts 51°
2026-04-26 01:20 44.26080 -67.37121 37091 ft 481 kts 51°
2026-04-26 01:20 44.29478 -67.29075 37086 ft 481 kts 51°
2026-04-26 01:21 44.32851 -67.21067 37083 ft 481 kts 51°
2026-04-26 01:21 44.36235 -67.13009 37081 ft 481 kts 51°
2026-04-26 01:22 44.39615 -67.04940 37078 ft 481 kts 51°
2026-04-26 01:22 44.42999 -66.96874 37078 ft 480 kts 50°
2026-04-26 01:23 44.46495 -66.88934 37070 ft 479 kts 49°
2026-04-26 01:23 44.50027 -66.81008 37066 ft 478 kts 49°
2026-04-26 01:24 44.53500 -66.73144 37064 ft 478 kts 50°
2026-04-26 01:24 44.56982 -66.65198 37063 ft 477 kts 50°
2026-04-26 01:25 44.60446 -66.57254 37061 ft 477 kts 50°
2026-04-26 01:25 44.63909 -66.49296 37061 ft 477 kts 50°
2026-04-26 01:26 44.67364 -66.41335 37058 ft 477 kts 50°
2026-04-26 01:26 44.70810 -66.33371 37064 ft 477 kts 51°
2026-04-26 01:27 44.74252 -66.25394 37065 ft 476 kts 51°
2026-04-26 01:27 44.77683 -66.17421 37067 ft 477 kts 51°
2026-04-26 01:28 44.81115 -66.09424 37067 ft 477 kts 51°
2026-04-26 01:28 44.84511 -66.01487 37072 ft 475 kts 51°
2026-04-26 01:29 44.87916 -65.93505 37083 ft 475 kts 51°
2026-04-26 01:29 44.91318 -65.85510 37084 ft 474 kts 51°
2026-04-26 01:30 44.94711 -65.77517 37082 ft 475 kts 51°
2026-04-26 01:30 44.98100 -65.69506 37087 ft 473 kts 52°
2026-04-26 01:31 45.01445 -65.61574 37079 ft 472 kts 52°
2026-04-26 01:31 45.04804 -65.53591 37092 ft 472 kts 52°
2026-04-26 01:32 45.08154 -65.45607 37076 ft 471 kts 52°
2026-04-26 01:32 45.11493 -65.37628 37076 ft 470 kts 53°
2026-04-26 01:33 45.14816 -65.29660 37074 ft 469 kts 53°
2026-04-26 01:33 45.18134 -65.21684 37071 ft 469 kts 53°
2026-04-26 01:34 45.21427 -65.13748 37069 ft 470 kts 53°
2026-04-26 01:34 45.24731 -65.05760 37070 ft 469 kts 53°
2026-04-26 01:35 45.28025 -64.97772 37067 ft 468 kts 53°
2026-04-26 01:35 45.31318 -64.89766 37067 ft 468 kts 53°
2026-04-26 01:36 45.34604 -64.81756 37074 ft 468 kts 53°
2026-04-26 01:37 45.39489 -64.69800 37057 ft 468 kts 54°
2026-04-26 01:37 45.42757 -64.61774 37058 ft 468 kts 54°
2026-04-26 01:38 45.46014 -64.53751 37057 ft 468 kts 54°
2026-04-26 01:38 45.49270 -64.45710 37051 ft 468 kts 54°
2026-04-26 01:39 45.52520 -64.37660 37044 ft 468 kts 54°
2026-04-26 01:39 45.55759 -64.29612 37045 ft 467 kts 54°
2026-04-26 01:40 45.58995 -64.21550 37038 ft 467 kts 54°
2026-04-26 01:40 45.62201 -64.13539 37048 ft 468 kts 55°
2026-04-26 01:41 45.65428 -64.05453 37034 ft 468 kts 55°
2026-04-26 01:41 45.68646 -63.97365 37040 ft 468 kts 55°
2026-04-26 01:42 45.71858 -63.89266 37041 ft 468 kts 55°
2026-04-26 01:42 45.75070 -63.81146 37037 ft 468 kts 55°
2026-04-26 01:43 45.78251 -63.73078 37035 ft 468 kts 55°
2026-04-26 01:43 45.81452 -63.64938 37042 ft 468 kts 55°
2026-04-26 01:44 45.84643 -63.56801 37037 ft 468 kts 56°
2026-04-26 01:44 45.87828 -63.48653 37036 ft 468 kts 56°
2026-04-26 01:45 45.91008 -63.40493 37038 ft 468 kts 56°
2026-04-26 01:45 45.94167 -63.32359 37033 ft 465 kts 56°
2026-04-26 01:46 45.97309 -63.24250 37025 ft 464 kts 56°
2026-04-26 01:46 46.00425 -63.16184 37025 ft 465 kts 56°
2026-04-26 01:47 46.03562 -63.08043 37043 ft 465 kts 56°
2026-04-26 01:47 46.06686 -62.99906 37031 ft 464 kts 56°
2026-04-26 01:48 46.09801 -62.91768 37010 ft 464 kts 56°
2026-04-26 01:48 46.12916 -62.83610 37016 ft 464 kts 56°
2026-04-26 01:49 46.16020 -62.75454 37011 ft 464 kts 56°
2026-04-26 01:49 46.19119 -62.67286 37016 ft 464 kts 57°
2026-04-26 01:50 46.22200 -62.59142 37007 ft 466 kts 57°
2026-04-26 01:50 46.25303 -62.50917 37009 ft 466 kts 57°
2026-04-26 01:51 46.28401 -62.42675 37001 ft 466 kts 57°
2026-04-26 01:51 46.31491 -62.34432 36997 ft 466 kts 57°
2026-04-26 01:52 46.34561 -62.26214 36988 ft 463 kts 57°
2026-04-26 01:52 46.37614 -62.18021 36988 ft 462 kts 57°
2026-04-26 01:53 46.40663 -62.09814 36973 ft 463 kts 57°
2026-04-26 01:53 46.43707 -62.01596 36987 ft 463 kts 58°
2026-04-26 01:54 46.46736 -61.93390 36960 ft 460 kts 58°
2026-04-26 01:54 46.49729 -61.85256 36973 ft 459 kts 58°
2026-04-26 01:55 46.52732 -61.77076 36948 ft 459 kts 58°
2026-04-26 01:55 46.55729 -61.68885 36966 ft 459 kts 58°
2026-04-26 01:56 46.58723 -61.60676 36948 ft 458 kts 58°
2026-04-26 01:56 46.61683 -61.52536 36945 ft 457 kts 58°
2026-04-26 01:57 46.64646 -61.44361 36939 ft 457 kts 58°
2026-04-26 01:57 46.67605 -61.36177 36936 ft 457 kts 58°
2026-04-26 01:58 46.70062 -61.29360 36949 ft 457 kts 58°
2026-04-26 01:58 46.73012 -61.21150 36942 ft 456 kts 58°
2026-04-26 01:59 46.75957 -61.12930 36928 ft 458 kts 58°
2026-04-26 01:59 46.78902 -61.04687 36928 ft 458 kts 58°
2026-04-26 02:00 46.81844 -60.96423 36929 ft 458 kts 58°
2026-04-26 02:00 46.84776 -60.88161 36927 ft 459 kts 59°
2026-04-26 02:01 46.87713 -60.79863 36920 ft 459 kts 59°
2026-04-26 02:01 46.90620 -60.71619 36926 ft 459 kts 59°
2026-04-26 02:02 46.93547 -60.63296 36919 ft 459 kts 59°
2026-04-26 02:02 46.96465 -60.54970 36910 ft 460 kts 59°
2026-04-26 02:03 46.99380 -60.46628 36897 ft 460 kts 59°
2026-04-26 02:03 47.02292 -60.38267 36886 ft 460 kts 59°
2026-04-26 02:04 47.05187 -60.29929 36886 ft 461 kts 59°
2026-04-26 02:04 47.08089 -60.21545 36864 ft 461 kts 59°
2026-04-26 02:05 47.10989 -60.13137 36866 ft 461 kts 59°
2026-04-26 02:05 47.13877 -60.04741 36860 ft 461 kts 59°
2026-04-26 02:06 47.16763 -59.96321 36845 ft 461 kts 59°
2026-04-26 02:06 47.19621 -59.87955 36845 ft 461 kts 59°
2026-04-26 02:07 47.22495 -59.79517 36848 ft 461 kts 60°
2026-04-26 02:07 47.25356 -59.71089 36841 ft 460 kts 60°
2026-04-26 02:08 47.28207 -59.62663 36831 ft 460 kts 59°
2026-04-26 02:08 47.31058 -59.54213 36816 ft 461 kts 60°
2026-04-26 02:09 47.33911 -59.45729 36809 ft 462 kts 60°
2026-04-26 02:09 47.36754 -59.37242 36803 ft 461 kts 60°
2026-04-26 02:10 47.39569 -59.28813 36817 ft 460 kts 60°
2026-04-26 02:10 47.42391 -59.20334 36793 ft 460 kts 60°
2026-04-26 02:11 47.45212 -59.11833 36806 ft 460 kts 61°
2026-04-26 02:11 47.48027 -59.03323 36792 ft 460 kts 61°
2026-04-26 02:12 47.50825 -58.94831 36782 ft 458 kts 61°
2026-04-26 02:12 47.53611 -58.86349 36770 ft 458 kts 61°
2026-04-26 02:13 47.56389 -58.77868 36773 ft 458 kts 62°
2026-04-26 02:13 47.59160 -58.69377 36765 ft 458 kts 62°
2026-04-26 02:14 47.61912 -58.60916 36760 ft 457 kts 61°
2026-04-26 02:14 47.64665 -58.52422 36752 ft 456 kts 61°
2026-04-26 02:15 47.67406 -58.43940 36753 ft 456 kts 62°
2026-04-26 02:15 47.70147 -58.35430 36738 ft 456 kts 62°
2026-04-26 02:16 47.72859 -58.26978 36740 ft 456 kts 61°
2026-04-26 02:16 47.75581 -58.18469 36736 ft 454 kts 62°
2026-04-26 02:17 47.78284 -58.09989 36731 ft 454 kts 62°
2026-04-26 02:17 47.80989 -58.01478 36729 ft 454 kts 62°
2026-04-26 02:18 47.83691 -57.92950 36719 ft 457 kts 62°
2026-04-26 02:18 47.86379 -57.84434 36719 ft 457 kts 62°
2026-04-26 02:19 47.89068 -57.75881 36719 ft 455 kts 62°
2026-04-26 02:19 47.91747 -57.67336 36710 ft 455 kts 62°
2026-04-26 02:20 47.94421 -57.58781 36711 ft 455 kts 62°
2026-04-26 02:20 47.97087 -57.50216 36713 ft 455 kts 62°
2026-04-26 02:21 47.99734 -57.41687 36710 ft 456 kts 63°
2026-04-26 02:21 48.02394 -57.33085 36699 ft 456 kts 63°
2026-04-26 02:22 48.05048 -57.24469 36702 ft 456 kts 63°
2026-04-26 02:22 48.07694 -57.15852 36700 ft 456 kts 62°
2026-04-26 02:23 48.10330 -57.07239 36702 ft 455 kts 62°
2026-04-26 02:23 48.12954 -56.98634 36666 ft 453 kts 62°
2026-04-26 02:24 48.15549 -56.90098 36665 ft 453 kts 63°
2026-04-26 02:24 48.18154 -56.81497 36656 ft 453 kts 63°
2026-04-26 02:25 48.20756 -56.72877 36659 ft 454 kts 63°
2026-04-26 02:25 48.23351 -56.64248 36627 ft 453 kts 63°
2026-04-26 02:26 48.25933 -56.55632 36624 ft 453 kts 63°
2026-04-26 02:26 48.28511 -56.47001 36627 ft 453 kts 63°
2026-04-26 02:27 48.31085 -56.38353 36629 ft 453 kts 63°
2026-04-26 02:27 48.33634 -56.29759 36619 ft 453 kts 63°
2026-04-26 02:28 48.36197 -56.21086 36615 ft 453 kts 63°
2026-04-26 02:28 48.38753 -56.12404 36620 ft 453 kts 63°
2026-04-26 02:29 48.41304 -56.03713 36617 ft 453 kts 63°
2026-04-26 02:29 48.43843 -55.95029 36604 ft 453 kts 63°
2026-04-26 02:30 48.46361 -55.86384 36606 ft 454 kts 63°
2026-04-26 02:30 48.48888 -55.77680 36602 ft 453 kts 63°
2026-04-26 02:31 48.51404 -55.68981 36604 ft 452 kts 63°
2026-04-26 02:31 48.53918 -55.60258 36586 ft 452 kts 64°
2026-04-26 02:32 48.56422 -55.51541 36588 ft 452 kts 63°
2026-04-26 02:32 48.58906 -55.42861 36592 ft 453 kts 64°
2026-04-26 02:33 48.61406 -55.34092 36587 ft 454 kts 64°
2026-04-26 02:33 48.63898 -55.25317 36578 ft 454 kts 64°
2026-04-26 02:34 48.66385 -55.16534 36575 ft 454 kts 64°
2026-04-26 02:34 48.68863 -55.07743 36573 ft 454 kts 64°
2026-04-26 02:35 48.71333 -54.98952 36578 ft 454 kts 64°
2026-04-26 02:35 48.73798 -54.90144 36557 ft 454 kts 64°
2026-04-26 02:36 48.76239 -54.81393 36551 ft 454 kts 64°
2026-04-26 02:36 48.78695 -54.72552 36549 ft 454 kts 64°
2026-04-26 02:37 48.81139 -54.63722 36545 ft 454 kts 64°
2026-04-26 02:37 48.83582 -54.54866 36545 ft 455 kts 65°
2026-04-26 02:38 48.86005 -54.46047 36541 ft 456 kts 65°
2026-04-26 02:38 48.88439 -54.37155 36543 ft 456 kts 65°
2026-04-26 02:39 48.90866 -54.28253 36538 ft 456 kts 65°
2026-04-26 02:39 48.93290 -54.19332 36527 ft 456 kts 65°
2026-04-26 02:40 48.95701 -54.10422 36520 ft 455 kts 65°
2026-04-26 02:40 48.98089 -54.01560 36517 ft 455 kts 65°
2026-04-26 02:41 49.00488 -53.92626 36517 ft 455 kts 65°
2026-04-26 02:41 49.02877 -53.83699 36500 ft 455 kts 65°
2026-04-26 02:42 49.05265 -53.74740 36507 ft 455 kts 65°
2026-04-26 02:42 49.07639 -53.65796 36498 ft 454 kts 65°
2026-04-26 02:43 49.11180 -53.52392 36489 ft 454 kts 65°
2026-04-26 02:43 49.13522 -53.43486 36482 ft 454 kts 65°
2026-04-26 02:44 49.15873 -53.34508 36482 ft 454 kts 65°
2026-04-26 02:44 49.18213 -53.25538 36479 ft 454 kts 65°
2026-04-26 02:45 49.20546 -53.16563 36474 ft 454 kts 65°
2026-04-26 02:45 49.22870 -53.07583 36465 ft 454 kts 65°
2026-04-26 02:46 49.25186 -52.98601 36458 ft 454 kts 66°
2026-04-26 02:46 49.27496 -52.89604 36466 ft 454 kts 66°
2026-04-26 02:47 49.29801 -52.80593 36463 ft 454 kts 66°
2026-04-26 02:47 49.31717 -52.73076 36451 ft 457 kts 66°
2026-04-26 02:48 49.34406 -52.62483 36444 ft 459 kts 66°
2026-04-26 02:48 49.36338 -52.54841 36443 ft 459 kts 66°
2026-04-26 02:49 49.38624 -52.45763 36451 ft 459 kts 66°
2026-04-26 02:49 49.40918 -52.36620 36438 ft 459 kts 67°
2026-04-26 02:50 49.43208 -52.27452 36420 ft 460 kts 67°
2026-04-26 02:50 49.45494 -52.18264 36430 ft 460 kts 67°
2026-04-26 02:51 49.47772 -52.09069 36418 ft 460 kts 67°
2026-04-26 02:51 49.50043 -51.99868 36653 ft 460 kts 67°
2026-04-26 02:52 49.51180 -51.95329 36798 ft 460 kts 66°
2026-04-26 02:52 49.52364 -51.90757 36922 ft 460 kts 66°
2026-04-26 02:52 49.53563 -51.86192 37089 ft 461 kts 66°
2026-04-26 02:52 49.54771 -51.81604 37114 ft 463 kts 66°
2026-04-26 02:53 49.57180 -51.72376 37336 ft 464 kts 66°
2026-04-26 02:53 49.59576 -51.63103 37417 ft 467 kts 66°
2026-04-26 02:54 49.61948 -51.53851 37404 ft 465 kts 67°
2026-04-26 02:54 49.64316 -51.44577 37416 ft 464 kts 67°
2026-04-26 02:55 49.66676 -51.35300 37417 ft 464 kts 67°
2026-04-26 02:55 49.69029 -51.26013 37414 ft 464 kts 67°
2026-04-26 02:56 49.71375 -51.16718 37405 ft 464 kts 67°
2026-04-26 02:56 49.73714 -51.07413 37406 ft 464 kts 67°
2026-04-26 02:57 49.76047 -50.98088 37407 ft 464 kts 67°
2026-04-26 02:57 49.78367 -50.88779 37406 ft 464 kts 68°
2026-04-26 02:58 49.80670 -50.79504 37404 ft 465 kts 68°
2026-04-26 02:58 49.82988 -50.70124 37409 ft 466 kts 68°
2026-04-26 02:59 49.85296 -50.60746 37403 ft 466 kts 68°
2026-04-26 02:59 49.87600 -50.51347 37403 ft 466 kts 68°
2026-04-26 03:00 49.89893 -50.41947 37407 ft 466 kts 68°
2026-04-26 03:00 49.92166 -50.32596 37407 ft 466 kts 68°
2026-04-26 03:01 49.94442 -50.23189 37404 ft 466 kts 68°
2026-04-26 03:01 49.96712 -50.13764 37409 ft 466 kts 68°
2026-04-26 03:02 49.98979 -50.04315 37403 ft 466 kts 68°
2026-04-26 03:02 50.01254 -49.94885 37401 ft 466 kts 68°
2026-04-26 03:03 50.03625 -49.85501 37401 ft 466 kts 67°
2026-04-26 03:03 50.06003 -49.76136 37407 ft 465 kts 67°
2026-04-26 03:04 50.08359 -49.66751 37398 ft 465 kts 68°
2026-04-26 03:04 50.10682 -49.57414 37400 ft 465 kts 68°
2026-04-26 03:05 50.13010 -49.48006 37398 ft 465 kts 68°
2026-04-26 03:05 50.15329 -49.38597 37403 ft 465 kts 68°
2026-04-26 03:06 50.17644 -49.29169 37403 ft 464 kts 68°
2026-04-26 03:06 50.19945 -49.19755 37401 ft 464 kts 68°
2026-04-26 03:07 50.22239 -49.10335 37401 ft 464 kts 68°
2026-04-26 03:07 50.24514 -49.00947 37400 ft 464 kts 68°
2026-04-26 03:08 50.26790 -48.91517 37406 ft 464 kts 69°
2026-04-26 03:08 50.29063 -48.82062 37405 ft 464 kts 69°
2026-04-26 03:09 50.31330 -48.72587 37407 ft 465 kts 69°
2026-04-26 03:09 50.33586 -48.63116 37408 ft 465 kts 69°
2026-04-26 03:10 50.35836 -48.53629 37407 ft 465 kts 69°
2026-04-26 03:10 50.38063 -48.44198 37405 ft 465 kts 70°
2026-04-26 03:11 50.40297 -48.34697 37406 ft 465 kts 70°
2026-04-26 03:11 50.42528 -48.25168 37406 ft 465 kts 70°
2026-04-26 03:12 50.44749 -48.15637 37412 ft 465 kts 70°
2026-04-26 03:12 50.46961 -48.06106 37412 ft 465 kts 70°
2026-04-26 03:13 50.49168 -47.96552 37412 ft 465 kts 70°
2026-04-26 03:13 50.51366 -47.86989 37412 ft 465 kts 70°
2026-04-26 03:14 50.53543 -47.77481 37414 ft 465 kts 70°
2026-04-26 03:14 50.55722 -47.67918 37413 ft 465 kts 71°
2026-04-26 03:15 50.57898 -47.58326 37423 ft 465 kts 71°
2026-04-26 03:15 50.60066 -47.48726 37421 ft 465 kts 71°
2026-04-26 03:16 50.62223 -47.39133 37424 ft 465 kts 71°
2026-04-26 03:16 50.64375 -47.29516 37424 ft 465 kts 71°
2026-04-26 03:17 50.66517 -47.19902 37420 ft 465 kts 71°
2026-04-26 03:17 50.68651 -47.10276 37417 ft 465 kts 71°
2026-04-26 03:18 50.70776 -47.00648 37422 ft 464 kts 71°
2026-04-26 03:18 50.72877 -46.91082 37428 ft 464 kts 72°
2026-04-26 03:19 50.74983 -46.81450 37429 ft 464 kts 72°
2026-04-26 03:19 50.77081 -46.71810 37432 ft 464 kts 72°
2026-04-26 03:20 50.79171 -46.62163 37432 ft 464 kts 73°
2026-04-26 03:20 50.81260 -46.52477 37434 ft 466 kts 72°
2026-04-26 03:21 50.83341 -46.42777 37436 ft 466 kts 73°
2026-04-26 03:21 50.85404 -46.33118 37439 ft 466 kts 72°
2026-04-26 03:22 50.87471 -46.23393 37439 ft 466 kts 73°
2026-04-26 03:22 50.89528 -46.13669 37447 ft 466 kts 73°
2026-04-26 03:23 50.91579 -46.03928 37448 ft 466 kts 73°
2026-04-26 03:23 50.93621 -45.94177 37451 ft 466 kts 73°
2026-04-26 03:24 50.95654 -45.84426 37451 ft 466 kts 73°
2026-04-26 03:24 50.97680 -45.74660 37453 ft 466 kts 73°
2026-04-26 03:25 50.99698 -45.64886 37457 ft 466 kts 73°
2026-04-26 03:25 51.01708 -45.55101 37451 ft 466 kts 74°
2026-04-26 03:26 51.03714 -45.45291 37457 ft 467 kts 74°
2026-04-26 03:26 51.05712 -45.35466 37459 ft 467 kts 74°
2026-04-26 03:27 51.07691 -45.25689 37462 ft 467 kts 74°
2026-04-26 03:27 51.09675 -45.15841 37459 ft 467 kts 75°
2026-04-26 03:28 51.11648 -45.05993 37473 ft 467 kts 75°
2026-04-26 03:28 51.13614 -44.96132 37463 ft 467 kts 75°
2026-04-26 03:29 51.15570 -44.86272 37462 ft 467 kts 75°
2026-04-26 03:29 51.17505 -44.76464 37473 ft 467 kts 75°
2026-04-26 03:30 51.19444 -44.66591 37470 ft 466 kts 75°
2026-04-26 03:30 51.21375 -44.56708 37469 ft 466 kts 75°
2026-04-26 03:31 51.23296 -44.46821 37479 ft 466 kts 75°
2026-04-26 03:31 51.25200 -44.36971 37474 ft 467 kts 76°
2026-04-26 03:32 51.27108 -44.27050 37450 ft 467 kts 76°
2026-04-26 03:32 51.29008 -44.17122 37475 ft 467 kts 76°
2026-04-26 03:33 51.30898 -44.07188 37478 ft 467 kts 76°
2026-04-26 03:33 51.32785 -43.97226 37479 ft 467 kts 76°
2026-04-26 03:34 51.34648 -43.87330 37478 ft 467 kts 76°
2026-04-26 03:34 51.36512 -43.77382 37466 ft 467 kts 76°
2026-04-26 03:35 51.38366 -43.67432 37475 ft 466 kts 76°
2026-04-26 03:35 51.40210 -43.57482 37475 ft 466 kts 76°
2026-04-26 03:36 51.42049 -43.47504 37476 ft 466 kts 76°
2026-04-26 03:36 51.43876 -43.37540 37479 ft 466 kts 77°
2026-04-26 03:37 51.45686 -43.27614 37473 ft 466 kts 77°
2026-04-26 03:37 51.47204 -43.19243 37477 ft 467 kts 77°
2026-04-26 03:38 51.49002 -43.09284 37470 ft 468 kts 77°
2026-04-26 03:38 51.50803 -42.99251 37472 ft 468 kts 77°
2026-04-26 03:39 51.52594 -42.89220 37475 ft 468 kts 77°
2026-04-26 03:39 51.54382 -42.79150 37472 ft 467 kts 77°
2026-04-26 03:40 51.56158 -42.69090 37469 ft 467 kts 77°
2026-04-26 03:40 51.57922 -42.59041 37471 ft 467 kts 77°
2026-04-26 03:41 51.59670 -42.49029 37469 ft 467 kts 78°
2026-04-26 03:41 51.61416 -42.38971 37470 ft 467 kts 78°
2026-04-26 03:42 51.63155 -42.28898 37461 ft 467 kts 78°
2026-04-26 03:42 51.64887 -42.18802 37468 ft 467 kts 78°
2026-04-26 03:43 51.66600 -42.08764 37459 ft 467 kts 78°
2026-04-26 03:43 51.68319 -41.98629 37466 ft 468 kts 78°
2026-04-26 03:44 51.70033 -41.88464 37465 ft 469 kts 78°
2026-04-26 03:44 51.71723 -41.78385 37463 ft 469 kts 79°
2026-04-26 03:45 51.73420 -41.68205 37462 ft 469 kts 79°
2026-04-26 03:45 51.75106 -41.58029 37462 ft 469 kts 79°
2026-04-26 03:46 51.76785 -41.47838 37459 ft 469 kts 79°
2026-04-26 03:47 51.79274 -41.32611 37433 ft 469 kts 79°
2026-04-26 03:47 51.80932 -41.22388 37457 ft 469 kts 79°
2026-04-26 03:48 51.82578 -41.12180 37460 ft 470 kts 79°
2026-04-26 03:48 51.84216 -41.01963 37459 ft 470 kts 79°
2026-04-26 03:49 51.85847 -40.91720 37442 ft 470 kts 80°
2026-04-26 03:49 51.87471 -40.81465 37437 ft 471 kts 80°
2026-04-26 03:50 51.89080 -40.71236 37449 ft 472 kts 80°
2026-04-26 03:50 51.90692 -40.60925 37471 ft 472 kts 80°
2026-04-26 03:51 51.92292 -40.50625 37461 ft 472 kts 81°
2026-04-26 03:51 51.93886 -40.40301 37459 ft 472 kts 81°
2026-04-26 03:52 51.95470 -40.29978 37453 ft 472 kts 81°
2026-04-26 03:52 51.97047 -40.19631 37462 ft 472 kts 81°
2026-04-26 03:53 51.98604 -40.09347 37467 ft 472 kts 81°
2026-04-26 03:53 52.00348 -39.99056 37469 ft 476 kts 73°
2026-04-26 03:54 52.02751 -39.89007 37464 ft 478 kts 72°
2026-04-26 03:54 52.05263 -39.79019 37461 ft 478 kts 72°
2026-04-26 03:55 52.07772 -39.69069 37461 ft 479 kts 73°
2026-04-26 03:55 52.10283 -39.59019 37460 ft 479 kts 73°
2026-04-26 03:56 52.12780 -39.48950 37452 ft 479 kts 73°
2026-04-26 03:56 52.15268 -39.38858 37438 ft 481 kts 73°
2026-04-26 03:57 52.17760 -39.28702 37456 ft 482 kts 74°
2026-04-26 03:57 52.20229 -39.18600 37455 ft 483 kts 74°
2026-04-26 03:58 52.22705 -39.08423 37449 ft 483 kts 74°
2026-04-26 03:58 52.25174 -38.98228 37451 ft 482 kts 74°
2026-04-26 03:59 52.27635 -38.88018 37454 ft 483 kts 74°
2026-04-26 03:59 52.30093 -38.77767 37452 ft 484 kts 74°
2026-04-26 04:00 52.32541 -38.67511 37456 ft 485 kts 75°
2026-04-26 04:00 52.34969 -38.57294 37458 ft 485 kts 75°
2026-04-26 04:01 52.37404 -38.46998 37448 ft 485 kts 75°
2026-04-26 04:01 52.39829 -38.36697 37461 ft 485 kts 75°
2026-04-26 04:02 52.42243 -38.26387 37471 ft 485 kts 75°
2026-04-26 04:02 52.44649 -38.16066 37471 ft 485 kts 75°
2026-04-26 04:03 52.47046 -38.05735 37477 ft 485 kts 75°
2026-04-26 04:03 52.49433 -37.95393 37479 ft 484 kts 75°
2026-04-26 04:04 52.51797 -37.85102 37496 ft 484 kts 75°
2026-04-26 04:04 52.54165 -37.74744 37495 ft 484 kts 75°
2026-04-26 04:05 52.56528 -37.64359 37492 ft 484 kts 75°
2026-04-26 04:05 52.58867 -37.54026 37502 ft 484 kts 75°
2026-04-26 04:06 52.61207 -37.43636 37505 ft 484 kts 75°
2026-04-26 04:06 52.63540 -37.33230 37517 ft 484 kts 75°
2026-04-26 04:07 52.65861 -37.22821 37515 ft 484 kts 76°
2026-04-26 04:07 52.68173 -37.12403 37522 ft 484 kts 76°
2026-04-26 04:08 52.70476 -37.01971 37536 ft 484 kts 76°
2026-04-26 04:08 52.72763 -36.91563 37535 ft 485 kts 76°
2026-04-26 04:09 52.75052 -36.81091 37545 ft 484 kts 76°
2026-04-26 04:09 52.77328 -36.70626 37548 ft 484 kts 76°
2026-04-26 04:10 52.79597 -36.60142 37561 ft 485 kts 76°
2026-04-26 04:10 52.81861 -36.49619 37555 ft 486 kts 76°
2026-04-26 04:11 52.84105 -36.39142 37567 ft 486 kts 76°
2026-04-26 04:11 52.86359 -36.28567 37564 ft 486 kts 76°
2026-04-26 04:12 52.88598 -36.18003 37583 ft 486 kts 76°
2026-04-26 04:12 52.90829 -36.07420 37590 ft 486 kts 76°
2026-04-26 04:13 52.93037 -35.96892 37588 ft 486 kts 76°
2026-04-26 04:13 52.95245 -35.86311 37605 ft 486 kts 76°
2026-04-26 04:14 52.97446 -35.75703 37602 ft 486 kts 76°
2026-04-26 04:14 52.99636 -35.65096 37599 ft 486 kts 76°
2026-04-26 04:15 53.01816 -35.54479 37614 ft 485 kts 76°
2026-04-26 04:15 53.03982 -35.43877 37632 ft 485 kts 76°
2026-04-26 04:16 53.06127 -35.33318 37608 ft 485 kts 76°
2026-04-26 04:16 53.08276 -35.22681 37647 ft 485 kts 76°
2026-04-26 04:17 53.10419 -35.12009 37651 ft 487 kts 76°
2026-04-26 04:17 53.12561 -35.01290 37650 ft 488 kts 76°
2026-04-26 04:18 53.14684 -34.90617 37663 ft 488 kts 76°
2026-04-26 04:18 53.16807 -34.79879 37664 ft 488 kts 76°
2026-04-26 04:19 53.18922 -34.69122 37674 ft 488 kts 76°
2026-04-26 04:19 53.21031 -34.58330 37675 ft 490 kts 76°
2026-04-26 04:20 53.23131 -34.47525 37691 ft 490 kts 76°
2026-04-26 04:20 53.25226 -34.36691 37692 ft 490 kts 76°
2026-04-26 04:21 53.27312 -34.25840 37703 ft 490 kts 76°
2026-04-26 04:21 53.29369 -34.15078 37715 ft 488 kts 76°
2026-04-26 04:22 53.31424 -34.04267 37717 ft 488 kts 76°
2026-04-26 04:22 53.33469 -33.93442 37731 ft 488 kts 76°
2026-04-26 04:23 53.35507 -33.82590 37728 ft 488 kts 76°
2026-04-26 04:23 53.37530 -33.71760 37736 ft 487 kts 75°
2026-04-26 04:24 53.39531 -33.60992 37739 ft 483 kts 75°
2026-04-26 04:24 53.41515 -33.50246 37758 ft 482 kts 76°
2026-04-26 04:25 53.43487 -33.39496 37757 ft 482 kts 76°
2026-04-26 04:25 53.45437 -33.28811 37771 ft 482 kts 76°
2026-04-26 04:26 53.47393 -33.18027 37768 ft 482 kts 76°
2026-04-26 04:26 53.49339 -33.07237 37782 ft 483 kts 76°
2026-04-26 04:27 53.51281 -32.96408 37782 ft 484 kts 76°
2026-04-26 04:27 53.53200 -32.85641 37782 ft 484 kts 76°
2026-04-26 04:28 53.55121 -32.74796 37794 ft 483 kts 76°
2026-04-26 04:28 53.56711 -32.65776 37796 ft 482 kts 76°
2026-04-26 04:29 53.58609 -32.54945 37809 ft 482 kts 76°
2026-04-26 04:29 53.60493 -32.44124 37809 ft 482 kts 76°
2026-04-26 04:30 53.62371 -32.33276 37823 ft 482 kts 76°
2026-04-26 04:30 53.64237 -32.22429 37826 ft 482 kts 76°
2026-04-26 04:31 53.66083 -32.11636 37838 ft 482 kts 76°
2026-04-26 04:31 53.67930 -32.00767 37840 ft 481 kts 76°
2026-04-26 04:32 53.69765 -31.89900 37851 ft 481 kts 76°
2026-04-26 04:32 53.71590 -31.79025 37854 ft 481 kts 76°
2026-04-26 04:33 53.73409 -31.68115 37861 ft 484 kts 76°
2026-04-26 04:33 53.75230 -31.57125 37870 ft 486 kts 76°
2026-04-26 04:34 53.77033 -31.46182 37876 ft 486 kts 76°
2026-04-26 04:34 53.78838 -31.35153 37888 ft 486 kts 77°
2026-04-26 04:35 53.80630 -31.24127 37881 ft 486 kts 76°
2026-04-26 04:35 53.82418 -31.13055 37894 ft 488 kts 77°
2026-04-26 04:36 53.84197 -31.01970 37898 ft 488 kts 77°
2026-04-26 04:36 53.85967 -30.90867 37912 ft 488 kts 77°
2026-04-26 04:37 53.87727 -30.79749 37907 ft 488 kts 77°
2026-04-26 04:37 53.89476 -30.68632 37919 ft 488 kts 76°
2026-04-26 04:38 53.91207 -30.57548 37915 ft 489 kts 77°
2026-04-26 04:38 53.92940 -30.46384 37930 ft 489 kts 77°
2026-04-26 04:39 53.94663 -30.35204 37941 ft 489 kts 77°
2026-04-26 04:39 53.96374 -30.24025 37933 ft 489 kts 77°
2026-04-26 04:40 53.98078 -30.12815 37939 ft 491 kts 77°
2026-04-26 04:40 53.99829 -30.01574 37953 ft 492 kts 72°
2026-04-26 04:41 54.02311 -29.90808 37950 ft 492 kts 68°
2026-04-26 04:41 54.04987 -29.80087 37948 ft 492 kts 67°
2026-04-26 04:42 54.07691 -29.69365 37974 ft 493 kts 67°
2026-04-26 04:42 54.10381 -29.58608 37963 ft 494 kts 67°
2026-04-26 04:43 54.13060 -29.47797 37970 ft 494 kts 67°
2026-04-26 04:43 54.15707 -29.37049 37995 ft 494 kts 67°
2026-04-26 04:44 54.18364 -29.26210 37976 ft 494 kts 67°
2026-04-26 04:44 54.21016 -29.15335 37999 ft 496 kts 67°
2026-04-26 04:45 54.23664 -29.04428 37986 ft 496 kts 67°
2026-04-26 04:45 54.26297 -28.93524 37990 ft 496 kts 67°
2026-04-26 04:46 54.28924 -28.82591 38018 ft 498 kts 68°
2026-04-26 04:46 54.31546 -28.71625 38000 ft 502 kts 67°
2026-04-26 04:47 54.34179 -28.60556 38003 ft 501 kts 68°
2026-04-26 04:47 54.36803 -28.49469 38002 ft 501 kts 68°
2026-04-26 04:48 54.40719 -28.32815 38027 ft 501 kts 68°
2026-04-26 04:48 54.43297 -28.21777 38016 ft 501 kts 68°
2026-04-26 04:49 54.45882 -28.10655 38017 ft 501 kts 68°
2026-04-26 04:49 54.48458 -27.99515 38017 ft 501 kts 68°
2026-04-26 04:50 54.51020 -27.88372 38021 ft 501 kts 68°
2026-04-26 04:50 54.53572 -27.77217 38032 ft 500 kts 68°
2026-04-26 04:51 54.56114 -27.66047 38024 ft 499 kts 68°
2026-04-26 04:51 54.58624 -27.54961 38026 ft 499 kts 68°
2026-04-26 04:52 54.61138 -27.43796 38037 ft 499 kts 68°
2026-04-26 04:52 54.63640 -27.32626 38028 ft 499 kts 68°
2026-04-26 04:53 54.66133 -27.21435 38036 ft 499 kts 68°
2026-04-26 04:53 54.68620 -27.10214 38053 ft 499 kts 69°
2026-04-26 04:54 54.71079 -26.99055 38037 ft 499 kts 69°
2026-04-26 04:54 54.73542 -26.87817 38048 ft 499 kts 69°
2026-04-26 04:55 54.75996 -26.76562 38049 ft 500 kts 69°
2026-04-26 04:55 54.78445 -26.65269 38048 ft 501 kts 69°
2026-04-26 04:56 54.80867 -26.54037 38046 ft 501 kts 69°
2026-04-26 04:56 54.83297 -26.42708 38053 ft 501 kts 69°
2026-04-26 04:57 54.85718 -26.31356 38050 ft 501 kts 69°
2026-04-26 04:57 54.88127 -26.19995 38053 ft 501 kts 69°
2026-04-26 04:58 54.90526 -26.08619 38057 ft 501 kts 69°
2026-04-26 04:58 54.92915 -25.97229 38056 ft 501 kts 69°
2026-04-26 04:59 54.95280 -25.85890 38059 ft 501 kts 69°
2026-04-26 04:59 54.97644 -25.74486 38058 ft 501 kts 69°
2026-04-26 05:00 55.00004 -25.63040 38061 ft 502 kts 69°
2026-04-26 05:00 55.02352 -25.51587 38062 ft 502 kts 69°
2026-04-26 05:01 55.04690 -25.40116 38071 ft 502 kts 69°
2026-04-26 05:01 55.07002 -25.28703 38064 ft 502 kts 69°
2026-04-26 05:02 55.09317 -25.17214 38060 ft 502 kts 70°
2026-04-26 05:02 55.11621 -25.05713 38063 ft 502 kts 70°
2026-04-26 05:03 55.13915 -24.94193 38064 ft 502 kts 70°
2026-04-26 05:03 55.16200 -24.82647 38066 ft 502 kts 70°
2026-04-26 05:04 55.18472 -24.71101 38069 ft 501 kts 70°
2026-04-26 05:04 55.20731 -24.59554 38064 ft 501 kts 70°
2026-04-26 05:05 55.22970 -24.48039 38067 ft 501 kts 70°
2026-04-26 05:05 55.25208 -24.36460 38071 ft 501 kts 70°
2026-04-26 05:06 55.27435 -24.24869 38065 ft 501 kts 70°
2026-04-26 05:06 55.29652 -24.13259 38064 ft 501 kts 70°
2026-04-26 05:07 55.31856 -24.01645 38066 ft 501 kts 70°
2026-04-26 05:07 55.34051 -23.90009 38071 ft 501 kts 70°
2026-04-26 05:08 55.36233 -23.78370 38070 ft 501 kts 71°
2026-04-26 05:08 55.38402 -23.66730 38070 ft 501 kts 71°
2026-04-26 05:09 55.40547 -23.55146 38069 ft 501 kts 71°
2026-04-26 05:09 55.42697 -23.43463 38064 ft 501 kts 71°
2026-04-26 05:10 55.44834 -23.31774 38062 ft 501 kts 71°
2026-04-26 05:10 55.46960 -23.20076 38072 ft 501 kts 71°
2026-04-26 05:11 55.49073 -23.08373 38068 ft 501 kts 71°
2026-04-26 05:11 55.51177 -22.96649 38067 ft 501 kts 71°
2026-04-26 05:12 55.53270 -22.84912 38051 ft 501 kts 71°
2026-04-26 05:12 55.55351 -22.73159 38053 ft 501 kts 71°
2026-04-26 05:13 55.57423 -22.61389 38051 ft 501 kts 72°
2026-04-26 05:13 55.59470 -22.49684 38055 ft 501 kts 72°
2026-04-26 05:14 55.61517 -22.37898 38056 ft 501 kts 72°
2026-04-26 05:14 55.63556 -22.26085 38056 ft 502 kts 72°
2026-04-26 05:15 55.65586 -22.14240 38050 ft 503 kts 72°
2026-04-26 05:15 55.67606 -22.02380 38050 ft 503 kts 72°
2026-04-26 05:16 55.69279 -21.92498 38050 ft 503 kts 72°
2026-04-26 05:16 55.71602 -21.78678 38060 ft 503 kts 72°
2026-04-26 05:17 55.73594 -21.66744 38053 ft 504 kts 72°
2026-04-26 05:17 55.75240 -21.56816 38053 ft 504 kts 72°
2026-04-26 05:18 55.77211 -21.44856 38053 ft 504 kts 73°
2026-04-26 05:18 55.79170 -21.32887 38053 ft 504 kts 73°
2026-04-26 05:19 55.81117 -21.20905 38051 ft 505 kts 73°
2026-04-26 05:19 55.83055 -21.08900 38045 ft 505 kts 73°
2026-04-26 05:20 55.84981 -20.96880 38054 ft 505 kts 73°
2026-04-26 05:20 55.86896 -20.84845 38053 ft 505 kts 73°
2026-04-26 05:21 55.88797 -20.72810 38050 ft 505 kts 73°
2026-04-26 05:21 55.90679 -20.60819 38049 ft 506 kts 74°
2026-04-26 05:22 55.92561 -20.48735 38046 ft 506 kts 74°
2026-04-26 05:22 55.94434 -20.36617 38046 ft 506 kts 74°
2026-04-26 05:23 55.96296 -20.24487 38049 ft 506 kts 74°
2026-04-26 05:23 55.98144 -20.12359 38051 ft 507 kts 74°
2026-04-26 05:24 55.99783 -20.00199 38048 ft 507 kts 83°
2026-04-26 05:24 56.00293 -19.87632 38050 ft 507 kts 88°
2026-04-26 05:25 56.00538 -19.75045 38053 ft 507 kts 89°
2026-04-26 05:25 56.00729 -19.62453 38054 ft 507 kts 89°
2026-04-26 05:26 56.00923 -19.49816 38052 ft 510 kts 89°
2026-04-26 05:26 56.01119 -19.37129 38050 ft 511 kts 89°
2026-04-26 05:27 56.01306 -19.24441 38050 ft 511 kts 89°
2026-04-26 05:27 56.01480 -19.11752 38056 ft 510 kts 89°
2026-04-26 05:28 56.01640 -18.99069 38059 ft 511 kts 90°
2026-04-26 05:28 56.01786 -18.86374 38058 ft 511 kts 90°
2026-04-26 05:29 56.01919 -18.73690 38062 ft 510 kts 90°
2026-04-26 05:29 56.02039 -18.61059 38061 ft 510 kts 90°
2026-04-26 05:30 56.02147 -18.48382 38062 ft 511 kts 90°
2026-04-26 05:30 56.02241 -18.35686 38061 ft 510 kts 90°
2026-04-26 05:31 56.02323 -18.22982 38048 ft 510 kts 90°
2026-04-26 05:31 56.02391 -18.10308 38067 ft 510 kts 91°
2026-04-26 05:32 56.02446 -17.97699 38066 ft 510 kts 91°
2026-04-26 05:32 56.02488 -17.85005 38059 ft 510 kts 91°
2026-04-26 05:33 56.02518 -17.72296 38071 ft 510 kts 91°
2026-04-26 05:33 56.02534 -17.59624 38067 ft 510 kts 91°
2026-04-26 05:34 56.02538 -17.46941 38077 ft 510 kts 91°
2026-04-26 05:34 56.02528 -17.34332 38077 ft 510 kts 91°
2026-04-26 05:35 56.02505 -17.21641 38075 ft 510 kts 91°
2026-04-26 05:35 56.02470 -17.08968 38085 ft 509 kts 92°
2026-04-26 05:36 56.02421 -16.96299 38076 ft 509 kts 92°
2026-04-26 05:36 56.02360 -16.83632 38076 ft 509 kts 92°
2026-04-26 05:37 56.02285 -16.70976 38093 ft 509 kts 92°
2026-04-26 05:37 56.02198 -16.58312 38085 ft 509 kts 92°
2026-04-26 05:38 56.02098 -16.45662 38091 ft 509 kts 92°
2026-04-26 05:38 56.01984 -16.33017 38081 ft 508 kts 92°
2026-04-26 05:39 56.01859 -16.20462 38098 ft 508 kts 92°
2026-04-26 05:39 56.01720 -16.07826 38096 ft 507 kts 93°
2026-04-26 05:40 56.01569 -15.95208 38104 ft 507 kts 93°
2026-04-26 05:40 56.01405 -15.82621 38110 ft 506 kts 93°
2026-04-26 05:41 56.01228 -15.70043 38107 ft 506 kts 93°
2026-04-26 05:41 56.01039 -15.57540 38110 ft 506 kts 94°
2026-04-26 05:42 56.00837 -15.44947 38106 ft 506 kts 94°
2026-04-26 05:42 56.00622 -15.32374 38110 ft 505 kts 94°
2026-04-26 05:43 56.00394 -15.19823 38108 ft 505 kts 94°
2026-04-26 05:43 56.00154 -15.07274 38128 ft 505 kts 94°
2026-04-26 05:44 55.99929 -14.94730 38125 ft 506 kts 92°
2026-04-26 05:44 55.99965 -14.82150 38127 ft 505 kts 91°
2026-04-26 05:45 56.00061 -14.69716 38131 ft 503 kts 91°
2026-04-26 05:45 56.00108 -14.57210 38125 ft 503 kts 92°
2026-04-26 05:46 56.00114 -14.44690 38129 ft 503 kts 92°
2026-04-26 05:46 56.00100 -14.32266 38128 ft 502 kts 92°
2026-04-26 05:47 56.00074 -14.19805 38136 ft 500 kts 92°
2026-04-26 05:47 56.00037 -14.07381 38137 ft 499 kts 93°
2026-04-26 05:48 55.99109 -13.95188 38320 ft 495 kts 108°
2026-04-26 05:48 55.98202 -13.89252 38478 ft 495 kts 109°
2026-04-26 05:48 55.97224 -13.83362 38671 ft 494 kts 110°
2026-04-26 05:49 55.96208 -13.77502 38852 ft 493 kts 110°
2026-04-26 05:49 55.94162 -13.65903 39111 ft 493 kts 111°
2026-04-26 05:50 55.92102 -13.54221 39151 ft 492 kts 110°
2026-04-26 05:50 55.90063 -13.42618 39155 ft 490 kts 111°
2026-04-26 05:51 55.88019 -13.31040 39162 ft 490 kts 111°
2026-04-26 05:51 55.85975 -13.19531 39145 ft 490 kts 111°
2026-04-26 05:52 55.83909 -13.07976 39169 ft 490 kts 111°
2026-04-26 05:52 55.81832 -12.96435 39163 ft 489 kts 111°
2026-04-26 05:53 55.79748 -12.84921 39171 ft 489 kts 111°
2026-04-26 05:53 55.77650 -12.73409 39168 ft 489 kts 111°
2026-04-26 05:54 55.75545 -12.61925 39181 ft 489 kts 111°
2026-04-26 05:54 55.73429 -12.50458 39180 ft 489 kts 111°
2026-04-26 05:55 55.71303 -12.39001 39181 ft 489 kts 112°
2026-04-26 05:55 55.69181 -12.27634 39181 ft 488 kts 112°
2026-04-26 05:56 55.67038 -12.16224 39189 ft 487 kts 112°
2026-04-26 05:56 55.64888 -12.04846 39190 ft 487 kts 112°
2026-04-26 05:57 55.62727 -11.93482 39190 ft 487 kts 112°
2026-04-26 05:57 55.60556 -11.82134 39195 ft 487 kts 112°
2026-04-26 05:58 55.58375 -11.70793 39194 ft 487 kts 112°
2026-04-26 05:58 55.56179 -11.59448 39195 ft 487 kts 112°
2026-04-26 05:59 55.53992 -11.48212 39198 ft 487 kts 112°
2026-04-26 05:59 55.51778 -11.36904 39197 ft 487 kts 112°
2026-04-26 06:00 55.49555 -11.25617 39199 ft 487 kts 113°
2026-04-26 06:00 55.47322 -11.14344 39203 ft 487 kts 113°
2026-04-26 06:01 55.45082 -11.03099 39208 ft 486 kts 113°
2026-04-26 06:01 55.42829 -10.91857 39205 ft 486 kts 113°
2026-04-26 06:02 55.40569 -10.80639 39208 ft 486 kts 113°
2026-04-26 06:02 55.38298 -10.69435 39208 ft 486 kts 113°
2026-04-26 06:03 55.36033 -10.58319 39208 ft 486 kts 113°
2026-04-26 06:03 55.33741 -10.47137 39209 ft 485 kts 113°
2026-04-26 06:04 55.31444 -10.35991 39209 ft 485 kts 113°
2026-04-26 06:04 55.29142 -10.24884 39213 ft 484 kts 113°
2026-04-26 06:05 55.26825 -10.13766 39220 ft 484 kts 113°
2026-04-26 06:05 55.24516 -10.02744 39217 ft 484 kts 113°
2026-04-26 06:06 55.22161 -9.91685 39228 ft 484 kts 114°
2026-04-26 06:06 55.19726 -9.80687 39216 ft 484 kts 115°
2026-04-26 06:07 55.17280 -9.69716 39216 ft 484 kts 114°
2026-04-26 06:07 55.15245 -9.60590 39218 ft 484 kts 114°
2026-04-26 06:08 55.12402 -9.47860 39224 ft 483 kts 114°
2026-04-26 06:08 55.10349 -9.38714 39225 ft 482 kts 115°
2026-04-26 06:09 55.07892 -9.27817 39226 ft 482 kts 115°
2026-04-26 06:09 55.05440 -9.17006 39227 ft 482 kts 115°
2026-04-26 06:10 55.02967 -9.06154 39230 ft 482 kts 115°
2026-04-26 06:10 55.00482 -8.95308 39232 ft 482 kts 115°
2026-04-26 06:11 54.97988 -8.84476 39232 ft 482 kts 115°
2026-04-26 06:11 54.95484 -8.73659 39225 ft 482 kts 115°
2026-04-26 06:12 54.92965 -8.62833 39238 ft 484 kts 115°
2026-04-26 06:12 54.90438 -8.52027 39233 ft 487 kts 115°
2026-04-26 06:13 54.87876 -8.41122 39233 ft 487 kts 115°
2026-04-26 06:13 54.85309 -8.30247 39238 ft 486 kts 115°
2026-04-26 06:14 54.82729 -8.19379 39236 ft 487 kts 115°
2026-04-26 06:14 54.80142 -8.08534 39233 ft 487 kts 115°
2026-04-26 06:15 54.77553 -7.97740 39234 ft 488 kts 115°
2026-04-26 06:15 54.74942 -7.86903 39218 ft 487 kts 116°
2026-04-26 06:16 54.72322 -7.76084 39232 ft 487 kts 116°
2026-04-26 06:16 54.69696 -7.65292 39227 ft 487 kts 116°
2026-04-26 06:17 54.67061 -7.54517 39224 ft 486 kts 116°
2026-04-26 06:17 54.64409 -7.43730 39230 ft 487 kts 116°
2026-04-26 06:18 54.61751 -7.32968 39232 ft 487 kts 116°
2026-04-26 06:18 54.59101 -7.22290 39232 ft 487 kts 116°
2026-04-26 06:19 54.56425 -7.11561 39231 ft 487 kts 116°
2026-04-26 06:19 54.53739 -7.00843 39229 ft 487 kts 116°
2026-04-26 06:20 54.51044 -6.90140 39232 ft 487 kts 116°
2026-04-26 06:20 54.48336 -6.79440 39238 ft 487 kts 116°
2026-04-26 06:21 54.45627 -6.68785 39237 ft 487 kts 116°
2026-04-26 06:21 54.42921 -6.58194 39238 ft 487 kts 116°
2026-04-26 06:22 54.40190 -6.47555 39236 ft 487 kts 116°
2026-04-26 06:22 54.37451 -6.36935 39236 ft 487 kts 116°
2026-04-26 06:23 54.34703 -6.26332 39238 ft 486 kts 116°
2026-04-26 06:23 54.31944 -6.15737 39240 ft 486 kts 116°
2026-04-26 06:24 54.29178 -6.05161 39240 ft 486 kts 116°
2026-04-26 06:24 54.26424 -5.94681 39244 ft 486 kts 117°
2026-04-26 06:25 54.23642 -5.84145 39241 ft 486 kts 117°
2026-04-26 06:25 54.20853 -5.73633 39244 ft 486 kts 117°
2026-04-26 06:26 54.18053 -5.63123 39246 ft 486 kts 117°
2026-04-26 06:26 54.15245 -5.52638 39243 ft 486 kts 117°
2026-04-26 06:27 54.12428 -5.42165 39237 ft 486 kts 117°
2026-04-26 06:27 54.09600 -5.31697 39238 ft 485 kts 117°
2026-04-26 06:28 54.06883 -5.21685 39241 ft 485 kts 117°
2026-04-26 06:28 54.04042 -5.11265 39241 ft 485 kts 117°
2026-04-26 06:29 54.01209 -5.00918 39240 ft 485 kts 117°
2026-04-26 06:29 53.98332 -4.90534 39238 ft 485 kts 120°
2026-04-26 06:30 53.94704 -4.80959 39234 ft 481 kts 128°
2026-04-26 06:30 53.90756 -4.71772 39230 ft 481 kts 129°
2026-04-26 06:31 53.86779 -4.62730 39250 ft 481 kts 129°
2026-04-26 06:31 53.82779 -4.53643 39248 ft 481 kts 129°
2026-04-26 06:32 53.78785 -4.44553 39241 ft 481 kts 129°
2026-04-26 06:32 53.74790 -4.35488 39244 ft 481 kts 129°
2026-04-26 06:33 53.70782 -4.26428 39244 ft 481 kts 129°
2026-04-26 06:33 53.66769 -4.17390 39237 ft 481 kts 129°
2026-04-26 06:34 53.62746 -4.08357 39247 ft 482 kts 129°
2026-04-26 06:34 53.58738 -3.99382 39246 ft 483 kts 129°
2026-04-26 06:35 53.54681 -3.90347 39245 ft 483 kts 129°
2026-04-26 06:35 53.50618 -3.81329 39247 ft 483 kts 129°
2026-04-26 06:36 53.46583 -3.72402 39242 ft 483 kts 129°
2026-04-26 06:36 53.42492 -3.63381 39245 ft 483 kts 129°
2026-04-26 06:37 53.38342 -3.54615 39252 ft 482 kts 133°
2026-04-26 06:37 53.33862 -3.46241 39252 ft 483 kts 135°
2026-04-26 06:38 53.29355 -3.37910 39252 ft 483 kts 134°
2026-04-26 06:38 53.24877 -3.29527 39258 ft 483 kts 134°
2026-04-26 06:39 53.20420 -3.21125 39261 ft 483 kts 134°
2026-04-26 06:39 53.15967 -3.12728 39271 ft 483 kts 134°
2026-04-26 06:40 53.11533 -3.04413 39288 ft 483 kts 134°
2026-04-26 06:40 53.07057 -2.96055 39283 ft 484 kts 134°
2026-04-26 06:41 53.02557 -2.87678 39285 ft 485 kts 134°
2026-04-26 06:41 52.98056 -2.79315 39306 ft 485 kts 134°
2026-04-26 06:42 52.93579 -2.71041 39315 ft 485 kts 134°
2026-04-26 06:42 52.89070 -2.62734 39320 ft 484 kts 134°
2026-04-26 06:43 52.84555 -2.54440 39321 ft 484 kts 134°
2026-04-26 06:43 52.80033 -2.46159 39317 ft 485 kts 134°
2026-04-26 06:44 52.75490 -2.37862 39314 ft 486 kts 134°
2026-04-26 06:44 52.70943 -2.29598 39300 ft 486 kts 134°
2026-04-26 06:45 52.66420 -2.21404 39302 ft 486 kts 134°
2026-04-26 06:45 52.61872 -2.13188 39306 ft 486 kts 134°
2026-04-26 06:46 52.57314 -2.04983 39301 ft 486 kts 134°
2026-04-26 06:46 52.52750 -1.96791 39305 ft 486 kts 134°
2026-04-26 06:47 52.48176 -1.88611 39307 ft 487 kts 134°
2026-04-26 06:47 52.43589 -1.80434 39320 ft 487 kts 134°
2026-04-26 06:48 52.38991 -1.72264 39320 ft 487 kts 134°
2026-04-26 06:48 52.34393 -1.64124 39317 ft 487 kts 135°
2026-04-26 06:49 52.29750 -1.56143 39338 ft 487 kts 136°
2026-04-26 06:49 52.25039 -1.48173 39344 ft 487 kts 136°
2026-04-26 06:50 52.20336 -1.40216 39347 ft 487 kts 135°
2026-04-26 06:50 52.15652 -1.32287 39346 ft 488 kts 135°
2026-04-26 06:51 52.10936 -1.24321 39343 ft 488 kts 135°
2026-04-26 06:51 52.03851 -1.12401 39320 ft 488 kts 136°
2026-04-26 06:52 51.99124 -1.04484 39311 ft 488 kts 136°
2026-04-26 06:52 51.94155 -0.96990 39322 ft 487 kts 141°
2026-04-26 06:53 51.89012 -0.89819 39314 ft 488 kts 141°
2026-04-26 06:53 51.83882 -0.82607 39316 ft 489 kts 140°
2026-04-26 06:54 51.78808 -0.75372 39311 ft 489 kts 140°
2026-04-26 06:54 51.73721 -0.68095 39317 ft 488 kts 140°
2026-04-26 06:55 51.68633 -0.60836 39316 ft 488 kts 140°
2026-04-26 06:55 51.63816 -0.53115 39321 ft 490 kts 128°
2026-04-26 06:56 51.60583 -0.43503 39317 ft 490 kts 111°
2026-04-26 06:56 51.58343 -0.33213 39317 ft 491 kts 108°
2026-04-26 06:57 51.56237 -0.22764 39322 ft 491 kts 108°
2026-04-26 06:57 51.54106 -0.12339 39311 ft 491 kts 108°
2026-04-26 06:58 51.52288 -0.03627 39336 ft 491 kts 108°
2026-04-26 06:58 51.50108 0.06700 39347 ft 491 kts 108°
2026-04-26 06:59 51.47900 0.17094 39348 ft 492 kts 108°
2026-04-26 06:59 51.45681 0.27493 39340 ft 492 kts 109°
2026-04-26 07:00 51.43459 0.37863 39343 ft 492 kts 109°
2026-04-26 07:00 51.41224 0.48236 39335 ft 492 kts 109°
2026-04-26 07:01 51.38989 0.58561 39337 ft 492 kts 108°
2026-04-26 07:01 51.36737 0.68908 39335 ft 492 kts 108°
2026-04-26 07:02 51.34489 0.79187 39330 ft 492 kts 109°
2026-04-26 07:02 51.32219 0.89514 39315 ft 492 kts 109°
2026-04-26 07:03 51.29939 0.99835 39317 ft 492 kts 109°
2026-04-26 07:03 51.27939 1.10258 39317 ft 490 kts 104°
2026-04-26 07:04 51.26203 1.20777 39317 ft 490 kts 103°
2026-04-26 07:04 51.24500 1.31318 39315 ft 490 kts 103°
2026-04-26 07:05 51.22799 1.41780 39316 ft 490 kts 103°
2026-04-26 07:05 51.21065 1.52327 39316 ft 489 kts 104°
2026-04-26 07:06 51.19328 1.62816 39318 ft 489 kts 104°
2026-04-26 07:06 51.17591 1.73227 39319 ft 489 kts 104°
2026-04-26 07:07 51.15836 1.83691 39319 ft 489 kts 104°
2026-04-26 07:07 51.14070 1.94162 39343 ft 489 kts 104°
2026-04-26 07:08 51.12857 2.04758 39335 ft 486 kts 95°
2026-04-26 07:08 51.12213 2.15460 39335 ft 486 kts 94°
2026-04-26 07:09 51.11652 2.26177 39320 ft 486 kts 94°
2026-04-26 07:09 51.11081 2.36896 39321 ft 486 kts 94°
2026-04-26 07:11 51.09082 2.63444 39320 ft 485 kts 108°
2026-04-26 07:11 51.06109 2.73030 39321 ft 484 kts 123°
2026-04-26 07:12 51.02350 2.81921 39316 ft 485 kts 125°
2026-04-26 07:12 50.98463 2.90704 39319 ft 485 kts 126°
2026-04-26 07:13 50.94601 2.99453 39318 ft 484 kts 126°
2026-04-26 07:13 50.90758 3.08209 39315 ft 484 kts 125°
2026-04-26 07:14 50.86916 3.16964 39314 ft 484 kts 126°
2026-04-26 07:14 50.83068 3.25708 39303 ft 484 kts 126°
2026-04-26 07:15 50.79212 3.34435 39309 ft 484 kts 126°
2026-04-26 07:15 50.75348 3.43149 39308 ft 484 kts 126°
2026-04-26 07:16 50.71478 3.51847 39311 ft 484 kts 126°
2026-04-26 07:16 50.67628 3.60473 39309 ft 484 kts 126°
2026-04-26 07:17 50.63745 3.69143 39308 ft 483 kts 126°
2026-04-26 07:17 50.59855 3.77801 39304 ft 483 kts 126°
2026-04-26 07:18 50.55982 3.86444 39301 ft 483 kts 125°
2026-04-26 07:18 50.52335 3.95226 39297 ft 483 kts 123°
2026-04-26 07:19 50.48724 4.04123 39293 ft 483 kts 123°
2026-04-26 07:19 50.45084 4.12971 39293 ft 483 kts 123°
2026-04-26 07:20 50.41410 4.21790 39292 ft 483 kts 124°
2026-04-26 07:20 50.37722 4.30589 39292 ft 483 kts 124°
2026-04-26 07:21 50.34027 4.39375 39293 ft 483 kts 124°
2026-04-26 07:21 50.30323 4.48159 39284 ft 483 kts 124°
2026-04-26 07:22 50.26618 4.56918 39288 ft 483 kts 124°
2026-04-26 07:22 50.22902 4.65674 39279 ft 483 kts 124°
2026-04-26 07:23 50.19208 4.74349 39285 ft 482 kts 124°
2026-04-26 07:23 50.15487 4.83056 39279 ft 482 kts 124°
2026-04-26 07:24 50.11751 4.91772 39276 ft 482 kts 124°
2026-04-26 07:24 50.08018 5.00451 39267 ft 482 kts 124°
2026-04-26 07:25 50.04299 5.09070 39276 ft 483 kts 124°
2026-04-26 07:25 50.00525 5.17787 39262 ft 483 kts 124°
2026-04-26 07:26 49.96792 5.26381 39266 ft 483 kts 125°
2026-04-26 07:26 49.93026 5.35023 39257 ft 483 kts 125°
2026-04-26 07:27 49.89257 5.43644 39260 ft 483 kts 125°
2026-04-26 07:27 49.85475 5.52267 39254 ft 483 kts 125°
2026-04-26 07:28 49.81716 5.60810 39251 ft 483 kts 125°
2026-04-26 07:28 49.77927 5.69393 39251 ft 482 kts 125°
2026-04-26 07:29 49.74130 5.77966 39254 ft 482 kts 125°
2026-04-26 07:29 49.70329 5.86520 39257 ft 482 kts 125°
2026-04-26 07:30 49.66523 5.95059 39262 ft 482 kts 126°
2026-04-26 07:30 49.62732 6.03536 39264 ft 482 kts 126°
2026-04-26 07:31 49.58918 6.12037 39271 ft 482 kts 126°
2026-04-26 07:31 49.55096 6.20530 39264 ft 482 kts 126°
2026-04-26 07:32 49.51275 6.28995 39269 ft 481 kts 126°
2026-04-26 07:32 49.47071 6.36969 39258 ft 479 kts 139°
2026-04-26 07:33 49.41632 6.42611 39259 ft 474 kts 155°
2026-04-26 07:33 49.35646 6.46863 39251 ft 474 kts 158°
2026-04-26 07:34 49.29584 6.50876 39260 ft 474 kts 159°
2026-04-26 07:34 49.23526 6.54902 39247 ft 474 kts 158°
2026-04-26 07:35 49.17480 6.58963 39243 ft 474 kts 158°
2026-04-26 07:35 49.11437 6.63033 39239 ft 474 kts 158°
2026-04-26 07:36 49.05431 6.67071 39249 ft 474 kts 158°
2026-04-26 07:36 48.99385 6.71123 39240 ft 474 kts 158°
2026-04-26 07:37 48.93297 6.74986 39247 ft 473 kts 161°
2026-04-26 07:37 48.87136 6.78556 39234 ft 473 kts 161°
2026-04-26 07:38 48.80975 6.82118 39246 ft 473 kts 161°
2026-04-26 07:38 48.74872 6.85694 39247 ft 473 kts 161°
2026-04-26 07:39 48.68735 6.89305 39239 ft 473 kts 161°
2026-04-26 07:39 48.62588 6.92918 39063 ft 473 kts 161°
2026-04-26 07:39 48.59526 6.94713 38816 ft 472 kts 161°
2026-04-26 07:40 48.56465 6.96505 38531 ft 471 kts 161°
2026-04-26 07:40 48.53416 6.98287 38088 ft 468 kts 161°
2026-04-26 07:40 48.50374 7.00063 37465 ft 469 kts 161°
2026-04-26 07:40 48.47322 7.01842 36872 ft 470 kts 161°
2026-04-26 07:41 48.44264 7.03621 36225 ft 472 kts 161°
2026-04-26 07:41 48.41188 7.05409 35520 ft 473 kts 161°
2026-04-26 07:41 48.38110 7.07195 34852 ft 475 kts 161°
2026-04-26 07:41 48.35018 7.08987 34161 ft 476 kts 161°
2026-04-26 07:42 48.31924 7.10779 33363 ft 477 kts 161°
2026-04-26 07:42 48.28814 7.12577 32548 ft 479 kts 161°
2026-04-26 07:42 48.25699 7.14376 31726 ft 480 kts 161°
2026-04-26 07:42 48.22577 7.16176 30911 ft 482 kts 161°
2026-04-26 07:43 48.19437 7.17984 30033 ft 484 kts 162°
2026-04-26 07:43 48.16341 7.19765 29248 ft 482 kts 161°
2026-04-26 07:43 48.13217 7.21561 28609 ft 477 kts 161°
2026-04-26 07:43 48.10129 7.23335 28002 ft 472 kts 161°
2026-04-26 07:44 48.07081 7.25084 27408 ft 467 kts 161°
2026-04-26 07:44 48.04056 7.26818 26813 ft 463 kts 161°
2026-04-26 07:44 48.01052 7.28535 26226 ft 459 kts 161°
2026-04-26 07:44 47.98077 7.30234 25625 ft 456 kts 161°
2026-04-26 07:45 47.95128 7.31914 25041 ft 453 kts 161°
2026-04-26 07:45 47.92197 7.33583 24453 ft 450 kts 161°
2026-04-26 07:45 47.89279 7.35242 23861 ft 447 kts 161°
2026-04-26 07:45 47.86379 7.36888 23213 ft 444 kts 161°
2026-04-26 07:46 47.84473 7.37970 22812 ft 442 kts 161°
2026-04-26 07:46 47.80687 7.40120 22018 ft 436 kts 161°
2026-04-26 07:46 47.77856 7.41723 21436 ft 432 kts 161°
2026-04-26 07:46 47.75054 7.43307 20836 ft 429 kts 160°
2026-04-26 07:47 47.72272 7.44878 20258 ft 426 kts 160°
2026-04-26 07:47 47.70439 7.45912 19874 ft 424 kts 160°
2026-04-26 07:47 47.67691 7.47469 19304 ft 421 kts 159°
2026-04-26 07:47 47.65100 7.49462 18724 ft 420 kts 144°
2026-04-26 07:48 47.63039 7.52485 18100 ft 418 kts 125°
2026-04-26 07:48 47.61720 7.56293 17544 ft 414 kts 110°
2026-04-26 07:48 47.60771 7.60301 16977 ft 410 kts 108°
2026-04-26 07:48 47.59871 7.64288 16413 ft 407 kts 108°
2026-04-26 07:49 47.58968 7.68247 15858 ft 404 kts 108°
2026-04-26 07:49 47.58059 7.72174 15301 ft 401 kts 108°
2026-04-26 07:49 47.57153 7.76063 14758 ft 398 kts 108°
2026-04-26 07:50 47.55346 7.83761 13622 ft 393 kts 109°
2026-04-26 07:50 47.54447 7.87567 13066 ft 390 kts 108°
2026-04-26 07:50 47.53555 7.91338 12518 ft 386 kts 108°
2026-04-26 07:50 47.52670 7.95067 12119 ft 379 kts 108°
2026-04-26 07:51 47.51823 7.98635 12007 ft 365 kts 108°
2026-04-26 07:51 47.50995 8.02109 11903 ft 352 kts 108°
2026-04-26 07:51 47.50193 8.05469 11758 ft 340 kts 108°
2026-04-26 07:51 47.49418 8.08721 11649 ft 330 kts 108°
2026-04-26 07:52 47.48669 8.11872 11539 ft 321 kts 108°
2026-04-26 07:52 47.47940 8.14939 11397 ft 312 kts 107°
2026-04-26 07:52 47.47334 8.17957 11256 ft 301 kts 97°
2026-04-26 07:52 47.47458 8.20959 11136 ft 289 kts 70°
2026-04-26 07:53 47.48277 8.23618 10976 ft 282 kts 59°
2026-04-26 07:53 47.49333 8.26017 10821 ft 274 kts 45°
2026-04-26 07:53 47.50881 8.27503 10704 ft 263 kts 15°
2026-04-26 07:53 47.52659 8.27562 10598 ft 255 kts 344°
2026-04-26 07:54 47.54163 8.26289 10506 ft 249 kts 315°
2026-04-26 07:54 47.55201 8.24278 10440 ft 243 kts 309°
2026-04-26 07:54 47.56320 8.22442 10293 ft 239 kts 316°
2026-04-26 07:54 47.57513 8.20730 10094 ft 239 kts 318°
2026-04-26 07:55 47.58725 8.19049 9901 ft 238 kts 319°
2026-04-26 07:55 47.60044 8.17652 9783 ft 229 kts 335°
2026-04-26 07:55 47.61560 8.17031 9586 ft 226 kts 357°
2026-04-26 07:55 47.63104 8.17343 9390 ft 224 kts 19°
2026-04-26 07:56 47.64437 8.18503 9194 ft 223 kts 40°
2026-04-26 07:56 47.65536 8.20117 8995 ft 222 kts 45°
2026-04-26 07:56 47.66538 8.21880 8751 ft 224 kts 55°
2026-04-26 07:56 47.67155 8.23990 8533 ft 225 kts 77°
2026-04-26 07:57 47.67156 8.26271 8357 ft 226 kts 101°
2026-04-26 07:57 47.66509 8.28400 8157 ft 228 kts 126°
2026-04-26 07:57 47.65436 8.30084 8071 ft 222 kts 135°
2026-04-26 07:57 47.64317 8.31603 8024 ft 214 kts 136°
2026-04-26 07:58 47.63240 8.33057 7939 ft 204 kts 135°
2026-04-26 07:58 47.62210 8.34465 7766 ft 198 kts 134°
2026-04-26 07:58 47.61235 8.35833 7616 ft 189 kts 135°
2026-04-26 07:58 47.60281 8.37150 7271 ft 184 kts 135°
2026-04-26 07:59 47.59303 8.38259 6945 ft 173 kts 151°
2026-04-26 07:59 47.58270 8.39117 6474 ft 169 kts 137°
2026-04-26 07:59 47.57472 8.40384 5974 ft 168 kts 130°
2026-04-26 07:59 47.56852 8.41825 5495 ft 164 kts 122°
2026-04-26 08:00 47.56025 8.43029 4914 ft 170 kts 131°
2026-04-26 08:00 47.55044 8.44055 4250 ft 176 kts 134°
2026-04-26 08:00 47.54353 8.45488 3777 ft 168 kts 137°
2026-04-26 08:00 47.53341 8.46325 3149 ft 168 kts 136°
2026-04-26 08:01 47.52573 8.47655 2670 ft 167 kts 133°
2026-04-26 08:01 47.51753 8.48772 2411 ft 154 kts 135°
2026-04-26 08:01 47.50990 8.49810 2161 ft 143 kts 133°
2026-04-26 08:01 47.50275 8.50795 1990 ft 139 kts 134°
2026-04-26 08:02 47.49570 8.51757 1801 ft 139 kts 135°
2026-04-26 08:02 47.48865 8.52716 1630 ft 140 kts 134°
2026-04-26 08:02 47.48146 8.53697 1435 ft 141 kts 136°
2026-04-26 08:02 47.47511 8.54566 1405 ft 100 kts 137°
2026-04-26 08:03 47.47176 8.55023 1385 ft 45 kts 137°
2026-04-26 08:03 47.46956 8.55321 1405 ft 40 kts 137°
2026-04-26 08:03 47.46802 8.55528 1408 ft 11 kts 140°
2026-04-26 08:03 47.46717 8.55615 1406 ft 18 kts 150°
2026-04-26 08:04 47.46595 8.55679 1406 ft 19 kts 166°
2026-04-26 08:04 47.46501 8.55711 1408 ft 8 kts 167°
2026-04-26 08:04 47.46431 8.55734 1403 ft 13 kts 166°
2026-04-26 08:04 47.46348 8.55798 1413 ft 13 kts 139°
2026-04-26 08:05 47.46285 8.55892 1415 ft 12 kts 135°
2026-04-26 08:05 47.46224 8.55976 1417 ft 11 kts 139°
2026-04-26 08:05 47.46154 8.55997 1416 ft 10 kts 184°
2026-04-26 08:05 47.46085 8.55983 1417 ft 10 kts 184°
2026-04-26 08:06 47.46008 8.55976 1414 ft 12 kts 183°
2026-04-26 08:06 47.45943 8.55923 1416 ft 10 kts 246°
2026-04-26 08:06 47.45943 8.55806 1413 ft 13 kts 277°
2026-04-26 08:06 47.45954 8.55659 1410 ft 16 kts 276°
2026-04-26 08:07 47.45966 8.55490 1412 ft 17 kts 276°
2026-04-26 08:07 47.45975 8.55378 1407 ft 8 kts 276°
2026-04-26 08:07 47.45983 8.55329 1408 ft 2 kts 311°
2026-04-26 08:07 47.45995 8.55330 1410 ft 4 kts 360°
2026-04-26 08:08 47.46035 8.55334 1408 ft 4 kts
2026-04-26 08:08 47.46054 8.55336 1408 ft 2 kts
2026-04-26 08:08 47.46062 8.55337 1408 ft 0 kts